sat.trackr.live / text

‹ back to catalog

HAWK-8A

NORAD 59443 · 2024-066B

PAYLOAD ACTIVE UNKNOWN

§ Identity

Operator
Country
US
Launch date
2024-04-07
Launch site
AFETR
Launch vehicle
Mass (kg)
RCS (m²)

External: N2YO · Heavens-Above · Gunter

§ Orbital elements

Epoch: 2026-05-25T04:29:08.896128Z

Period
96.06 min
Inclination
45.5951°
Eccentricity
0.0003919
Mean motion
14.99023053 rev/d
Perigee alt
567.2 km
Apogee alt
572.6 km
Semi-major
6,948.1 km
B*
3.6450e-4
RAAN
35.5420°
Arg perigee
289.2250°
Mean anomaly
70.8207°
Rev number
11,638

§ Raw data

HAWK-8A1 59443U 24066B   26145.18690852  .00004256  00000+0  36450-3 0  99972 59443  45.5951  35.5420 0003919 289.2250  70.8207 14.99023053116384

JSON: /api/v1/satellites/59443 · /tle

For live sub-satellite position, see the globe view (requires WebGL).

§ Visibility from observer

Set your observer location to see the next 7 days of passes ≥ 10°. The values pass through the URL so the page stays shareable.

No JS? Fill the form by hand. The geolocation button needs JavaScript.